This is the latest recevied weather packets stored in our database for station/object SV9TNF-2. If no packets are shown the sender has not sent any weather packets the latest 10 day(s).
| Time | Temp. | Humidity | Pressure | Rain* | Wind** | Luminosity | Snow |
|---|---|---|---|---|---|---|---|
| 1777253440 | 15° C | 59% | 1021.7 hPa | 0 mm | 8.05 m/s, 219° | - | - |
| 1777253140 | 15° C | 60% | 1021.7 hPa | 0 mm | 4.47 m/s, 211° | - | - |
| 1777252840 | 15° C | 60% | 1021.7 hPa | 0 mm | 9.39 m/s, 250° | - | - |
| 1777252540 | 15° C | 61% | 1021.7 hPa | 0 mm | 8.05 m/s, 179° | - | - |
| 1777252240 | 15° C | 60% | 1021.7 hPa | 0 mm | 8.05 m/s, 213° | - | - |
| 1777251939 | 15° C | 61% | 1021.7 hPa | 0 mm | 8.49 m/s, 192° | - | - |
| 1777251639 | 15° C | 61% | 1021.7 hPa | 0 mm | 8.05 m/s, 119° | - | - |
| 1777251339 | 15° C | 60% | 1021.7 hPa | 0 mm | 8.49 m/s, 190° | - | - |
| 1777251039 | 15° C | 60% | 1021.7 hPa | 0 mm | 8.05 m/s, 194° | - | - |
| 1777250739 | 15° C | 61% | 1021.7 hPa | 0 mm | 5.36 m/s, 228° | - | - |
| 1777250439 | 14.44° C | 63% | 1021.7 hPa | 0 mm | 6.71 m/s, 216° | - | - |
| 1777250141 | 14.44° C | 64% | 1021.7 hPa | 0 mm | 6.71 m/s, 186° | - | - |
| 1777249839 | 14.44° C | 64% | 1021.7 hPa | 0 mm | 7.15 m/s, 94° | - | - |
| 1777249539 | 14.44° C | 64% | 1021.7 hPa | 0 mm | 9.83 m/s, 252° | - | - |
| 1777249239 | 14.44° C | 64% | 1021.7 hPa | 0 mm | 9.39 m/s, 231° | - | - |
| 1777248939 | 14.44° C | 66% | 1021.7 hPa | 0 mm | 8.05 m/s, 263° | - | - |
| 1777248638 | 14.44° C | 66% | 1021.7 hPa | 0 mm | 7.6 m/s, 156° | - | - |
| 1777248338 | 14.44° C | 66% | 1021.7 hPa | 0 mm | 6.26 m/s, 177° | - | - |
| 1777248038 | 14.44° C | 66% | 1021.7 hPa | 0 mm | 5.81 m/s, 176° | - | - |
| 1777247738 | 14.44° C | 65% | 1021.7 hPa | 0 mm | 10.73 m/s, 181° | - | - |
| 1777247438 | 14.44° C | 66% | 1021.7 hPa | 0 mm | 7.15 m/s, 178° | - | - |
| 1777247138 | 14.44° C | 67% | 1022 hPa | 0 mm | 6.26 m/s, 206° | - | - |
| 1777246838 | 14.44° C | 68% | 1022 hPa | 0 mm | 5.81 m/s, 198° | - | - |
| 1777246538 | 14.44° C | 68% | 1022 hPa | 0 mm | 5.81 m/s, 184° | - | - |
| 1777246238 | 14.44° C | 69% | 1022 hPa | 0 mm | 5.81 m/s, 247° | - | - |
* Rain latest hour (hover to see other rain measurements)
** Current wind speed in m/s (hover to see current wind gust speed)